Regional Weather Roundup
Issued by NWS Charleston, SC

Current Version | Previous Version | Graphics & Text | Print | Product List | Glossary On
Versions: 1 2 3 4 5 6 7 8 9 10 11 12 13 14 15 16 17 18 19 20 21 22 23 24 25 26 27 28 29 30 31 32 33 34 35 36 37 38 39 40 41 42 43 44 45 46 47 48 49 50
000
ASUS42 KCHS 251127
RWRCHS

REGIONAL WEATHER ROUNDUP
NATIONAL WEATHER SERVICE CHARLESTON SC
700 AM EDT TUE APR 25 2017

NOTE: "FAIR" INDICATES FEW OR NO CLOUDS BELOW 12,000 FEET WITH NO
SIGNIFICANT WEATHER AND/OR OBSTRUCTIONS TO VISIBILITY.

NOT ALL STATIONS ARE QUALITY CONTROLLED. USE DATA WITH CAUTION...
ESPECIALLY DEWPOINT OBSERVATIONS.

SCZ027-030-031-034>040-042>050-251200-
...SOUTHEAST SOUTH CAROLINA...

CITY           SKY/WX    TMP DP  RH WIND       PRES   REMARKS
N CHARLESTON   CLOUDY    59  56  89 W9        29.65R
WATERFRONT PRK   N/A     60  59  96 VRB3      29.63R
JOHNS ISLAND   CLOUDY    59  59 100 W7        29.67R FOG
PINOPOLIS        N/A     59  57  94 W12       29.53S
MONCKS CORNER  CLOUDY    57  55  94 W5        29.67R
SUMMERVILLE    CLOUDY    55  55 100 W8        29.69R FOG
BEAUFORT MCAS  CLOUDY    59  58  96 W10       29.69R
BEAUFORT ARPT  CLOUDY    59  55  88 W10       29.69R FOG
HILTON HEAD IS CLOUDY    59  57  94 NW12G18   29.68R
WALTERBORO     CLOUDY    55  55 100 W8        29.70R
ALLENDALE      CLOUDY    57  55  94 VRB5      29.70R FOG

...SOUTHERN MIDLANDS AND PEE DEE...

CITY           SKY/WX    TMP DP  RH WIND       PRES   REMARKS
GEORGETOWN     CLOUDY    55  55 100 W7        29.64R
KINGSTREE      HVY RAIN  55  55 100 W3        29.64R
ORANGEBURG     CLOUDY    57  55  93 W8        29.68R
BARNWELL       CLOUDY    57  57 100 W6        29.70R
AIKEN          CLOUDY    54  52  94 W8        29.74R
MANNING        DRIZZLE   55  54  94 MISG      29.66R
COLUMBIA       CLOUDY    58  54  86 NW12      29.65R
SUMTER         DRIZZLE   57  55  94 NW7       29.64R FOG
FLORENCE       CLOUDY    57  57 100 NW5       29.61R
MYRTLE BEACH   CLOUDY    61  59  94 W6        29.61R
N MYRTLE BEACH MOCLDY    61  61 100 W3        29.59R

$$

GAZ063-065-086>088-099>101-113>116-118-119-134>141-150-251200-
...SOUTHEAST GEORGIA...

CITY           SKY/WX    TMP DP  RH WIND       PRES   REMARKS
SAVANNAH ARPT  CLOUDY    60  54  80 W13       29.70R
HUNTER AAF     CLOUDY    60  58  91 W10       29.67R
FORT STEWART   CLOUDY    61  54  77 W9        29.71R
STATESBORO     CLOUDY    58  58 100 NW13      29.73R
SYLVANIA       CLOUDY   N/A N/A N/A NW9       29.72R
CLAXTON        CLOUDY    59  59 100 W9        29.73R

...CSRA...CENTRAL AND FAR SOUTHEAST GEORGIA...

CITY           SKY/WX    TMP DP  RH WIND       PRES   REMARKS
THOMSON        CLOUDY    56  54  95 N6        29.78R
AUGUSTA-BUSH   CLOUDY    60  55  83 W9        29.70R
AUGUSTA-DANIEL CLOUDY    58  53  84 W7        29.71R
SWAINSBORO     CLOUDY    57  55  94 NW8       29.74R
VIDALIA        CLOUDY    59  55  88 NW8       29.74R
EASTMAN        CLOUDY    59  59 100 CALM      29.77S
HAZLEHURST     CLOUDY    60  60 100 NW3       29.74R
ALMA           MOCLDY    58  57  97 CALM      29.75R
WAYCROSS       CLEAR     59  59 100 W8        29.75R
JESUP          CLOUDY    59  54  82 W3        29.74R
BAXLEY         CLOUDY    61  61 100 NW6       29.74R
BRUNSWICK      CLEAR     59  57  94 W6        29.75R
SAINT SIMONS   RAIN      60  55  83 W7        29.72R

$$

SCZ027-028-034-036>038-045-046-048>050-GAZ119-141-251200-
...LAKE AND SUPPLEMENTAL COASTAL OBSERVATIONS...

STATION/POSITION TIME  TEMP    WIND        PRES    WAVE   SWELL
                       AIR SEA DIR/SP/G            HT/PER HT/PER/DIR
                 (UTC) (F)     (DEG/KT/KT) (MB)    (FT/S) (FT/S/D)
WINYAH BAY       1045   59     270/  6     1003.0R
LAKE MURRAY      1050   56     310/  2/  8 1004.1R
ACE BASIN NERRS  1030   59     270/  3     1004.0S
FORT PULASKI     1100   62 74  290/ 13/ 16 1005.6
SAPELO ISLAND    1030   60     280/  7     1006.0S

$$

ANZ835-935-AMZ111-154-330-350-352-354-370-450-454-472-251200-
...C-MAN AND BUOY OBSERVATIONS...

STATION/POSITION TIME  TEMP    WIND        PRES    WAVE   SWELL
                       AIR SEA DIR/SP/G            HT/PER HT/PER/DIR
                 (UTC) (F)     (DEG/KT/KT) (MB)    (FT/S) (FT/S/D)
BUOY 41004       1110   64 72  260/ 16/ 21 1003.5
BUOY 41008       1050   63 71  270/ 21/ 25 1005.2R   4/ 9   3/ 60/ 9
FOLLY BEACH CMAN 1100   60     260/  9/ 12 1005.1R
CAPERS NEARSHORE 1108   63 71  290/ 14/ 19 1003.6R
FRIPP NEARSHORE  1108   62 70  300/ 16/ 19 1004.8R


STATION/POSITION TIME  TEMP    WIND        PRES    WAVE   SWELL
                       AIR SEA DIR/SP/G            HT/PER HT/PER/DIR
                 (UTC) (F)     (DEG/KT/KT) (MB)    (FT/S) (FT/S/D)
5E ST. MARYS GA  1100      72                N/A     3/10   2/ 90/11
FRYING PAN BUOY  1110   69 75  250/ 16/ 21 1002.0
BUOY 41025       1050   73 77  200/ 17/ 21 1001.8R  13/10  10/130/10
CAPE LOOKOUT NC  1100   66     240/  4/  4 1001.3R
BUOY 41002       1050   71 75  180/ 12/ 14 1004.8R   9/10   8/130/10
BUOY 41010       1110   72 78  270/ 17/ 25 1007.3
ST AUGUSTINE FL  1100   57 72  270/  6/  8 1009.1R


$$



USA.gov is the U.S. government's official web portal to all federal, state and local government web resources and services.